When you browse on this site, cookies collect data to enhance your experience and personalize the content and advertising you see.
Visit our Privacy Policy to learn more. By continuing to use the site, you agree to this use of cookies and data.
  • In Switzerland
  • List of Countries
  • For 7 days
  • Water Temperature
  • Weather Map
  • Weather Widgets
  • user-avatar
    Login

    Hourly Weather Lubango

    Today, 21 November, Thursday

    Time Temperature Precipitation Wind Pressure Humidity
    00:00 +16°C° 0 mm 1 mps 607 mmHg 41%
    01:00 +16°C° 0 mm 2 mps 607 mmHg 40%
    02:00 +16°C° 0 mm 1 mps 606 mmHg 40%
    03:00 +15°C° 0 mm 1 mps 606 mmHg 40%
    04:00 +15°C° 0 mm 1 mps 606 mmHg 40%
    05:00 +16°C° 0 mm 1 mps 607 mmHg 40%
    06:00 +18°C° 0 mm 1 mps 607 mmHg 40%
    07:00 +17°C° 0 mm 0 mps 608 mmHg 40%
    08:00 +21°C° 0 mm 1 mps 609 mmHg 37%
    09:00 +23°C° 0 mm 1 mps 610 mmHg 33%
    10:00 +25°C° 0 mm 1 mps 611 mmHg 30%
    11:00 +26°C° 0 mm 1 mps 610 mmHg 29%
    12:00 +27°C° 0 mm 2 mps 610 mmHg 28%
    13:00 +28°C° 0 mm 2 mps 610 mmHg 28%
    14:00 +27°C° 0 mm 3 mps 609 mmHg 29%
    15:00 +26°C° 0 mm 3 mps 609 mmHg 30%
    16:00 +25°C° 0 mm 4 mps 608 mmHg 31%
    17:00 +22°C° 0 mm 3 mps 608 mmHg 36%
    18:00 +20°C° 0 mm 3 mps 607 mmHg 41%
    19:00 +18°C° 0 mm 2 mps 607 mmHg 46%
    20:00 +18°C° 0 mm 2 mps 607 mmHg 48%
    21:00 +18°C° 0 mm 1 mps 608 mmHg 51%
    22:00 +18°C° 0 mm 1 mps 608 mmHg 53%
    23:00 +16°C° 0 mm 1 mps 608 mmHg 54%

    Tomorrow, 22 November, Friday

    Time Temperature Precipitation Wind Pressure Humidity
    00:00 +16°C° 0 mm 1 mps 608 mmHg 54%
    01:00 +16°C° 0 mm 1 mps 607 mmHg 55%
    02:00 +15°C° 0 mm 1 mps 607 mmHg 53%
    03:00 +15°C° 0 mm 1 mps 607 mmHg 50%
    04:00 +15°C° 0 mm 1 mps 606 mmHg 48%
    05:00 +15°C° 0 mm 1 mps 607 mmHg 45%
    06:00 +16°C° 0 mm 1 mps 608 mmHg 43%
    07:00 +16°C° 0 mm 0 mps 609 mmHg 40%
    08:00 +21°C° 0 mm 1 mps 610 mmHg 36%
    09:00 +23°C° 0 mm 1 mps 611 mmHg 31%
    10:00 +25°C° 0 mm 1 mps 611 mmHg 26%
    11:00 +26°C° 0 mm 1 mps 611 mmHg 26%
    12:00 +27°C° 0 mm 2 mps 611 mmHg 25%
    13:00 +28°C° 0 mm 2 mps 611 mmHg 25%
    14:00 +27°C° 0 mm 2 mps 610 mmHg 26%
    15:00 +27°C° 0 mm 3 mps 609 mmHg 28%
    16:00 +26°C° 0 mm 3 mps 608 mmHg 29%
    17:00 +24°C° 0 mm 3 mps 608 mmHg 34%
    18:00 +20°C° 0 mm 2 mps 607 mmHg 39%
    19:00 +18°C° 0 mm 2 mps 607 mmHg 44%
    20:00 +18°C° 0 mm 2 mps 607 mmHg 46%
    21:00 +18°C° 0 mm 1 mps 608 mmHg 47%
    22:00 +18°C° 0 mm 1 mps 608 mmHg 48%
    23:00 +18°C° 0 mm 1 mps 608 mmHg 49%

    Day after tomorrow, 23 November, Saturday

    Time Temperature Precipitation Wind Pressure Humidity
    00:00 +16°C° 0 mm 1 mps 607 mmHg 50%
    01:00 +16°C° 0 mm 1 mps 607 mmHg 51%
    02:00 +15°C° 0 mm 1 mps 607 mmHg 50%
    03:00 +15°C° 0 mm 1 mps 607 mmHg 48%
    04:00 +15°C° 0 mm 1 mps 607 mmHg 47%
    05:00 +16°C° 0 mm 1 mps 608 mmHg 45%
    06:00 +18°C° 0 mm 1 mps 608 mmHg 43%
    07:00 +17°C° 0 mm 0 mps 609 mmHg 41%
    08:00 +21°C° 0 mm 1 mps 610 mmHg 37%
    09:00 +24°C° 0 mm 1 mps 611 mmHg 32%
    10:00 +26°C° 0 mm 2 mps 611 mmHg 28%
    11:00 +27°C° 0 mm 2 mps 611 mmHg 27%
    12:00 +28°C° 0 mm 2 mps 611 mmHg 26%
    13:00 +28°C° 0 mm 2 mps 611 mmHg 24%
    14:00 +28°C° 0 mm 3 mps 610 mmHg 26%
    15:00 +27°C° 0 mm 3 mps 609 mmHg 27%
    16:00 +26°C° 0 mm 4 mps 608 mmHg 29%
    17:00 +24°C° 0 mm 3 mps 608 mmHg 38%
    18:00 +20°C° 0 mm 2 mps 607 mmHg 47%
    19:00 +18°C° 0 mm 2 mps 607 mmHg 56%
    20:00 +18°C° 0 mm 1 mps 607 mmHg 57%
    21:00 +18°C° 0 mm 1 mps 608 mmHg 59%
    22:00 +16°C° 0 mm 1 mps 608 mmHg 60%
    23:00 +16°C° 0 mm 1 mps 608 mmHg 59%

    24 November, Sunday

    Time Temperature Precipitation Wind Pressure Humidity
    00:00 +15°C° 0 mm 1 mps 607 mmHg 57%
    01:00 +15°C° 0 mm 1 mps 607 mmHg 56%
    02:00 +15°C° 0 mm 1 mps 607 mmHg 53%
    03:00 +15°C° 0 mm 1 mps 607 mmHg 50%
    04:00 +15°C° 0 mm 1 mps 607 mmHg 46%
    05:00 +16°C° 0 mm 1 mps 607 mmHg 43%
    06:00 +19°C° 0 mm 1 mps 608 mmHg 40%
    07:00 +20°C° 0 mm 1 mps 609 mmHg 37%
    08:00 +23°C° 0 mm 2 mps 609 mmHg 32%
    09:00 +25°C° 0 mm 3 mps 610 mmHg 28%
    10:00 +27°C° 0 mm 3 mps 611 mmHg 24%
    11:00 +28°C° 0 mm 3 mps 611 mmHg 23%
    12:00 +29°C° 0 mm 3 mps 610 mmHg 22%
    13:00 +31°C° 0 mm 3 mps 610 mmHg 22%
    14:00 +29°C° 0 mm 3 mps 609 mmHg 25%
    15:00 +28°C° 0 mm 3 mps 608 mmHg 29%
    16:00 +26°C° 0 mm 3 mps 607 mmHg 33%
    17:00 +24°C° 0 mm 2 mps 607 mmHg 40%
    18:00 +21°C° 0 mm 2 mps 607 mmHg 47%
    19:00 +20°C° 0 mm 1 mps 606 mmHg 53%
    20:00 +19°C° 0 mm 1 mps 607 mmHg 55%
    21:00 +19°C° 0 mm 1 mps 607 mmHg 56%
    22:00 +18°C° 0 mm 1 mps 608 mmHg 57%
    23:00 +18°C° 0 mm 1 mps 608 mmHg 56%

    25 November, Monday

    Time Temperature Precipitation Wind Pressure Humidity
    00:00 +18°C° 0 mm 1 mps 608 mmHg 56%
    01:00 +18°C° 0 mm 1 mps 607 mmHg 55%
    02:00 +18°C° 0 mm 1 mps 607 mmHg 56%
    03:00 +18°C° 0 mm 1 mps 607 mmHg 56%
    04:00 +16°C° 0 mm 1 mps 607 mmHg 57%
    05:00 +18°C° 0 mm 1 mps 607 mmHg 55%
    06:00 +17°C° 0 mm 0 mps 608 mmHg 52%
    07:00 +18°C° 0 mm 0 mps 608 mmHg 50%
    08:00 +22°C° 0 mm 1 mps 609 mmHg 46%
    09:00 +24°C° 0 mm 1 mps 610 mmHg 41%
    10:00 +26°C° 0 mm 2 mps 611 mmHg 37%
    11:00 +27°C° 0 mm 2 mps 610 mmHg 36%
    12:00 +28°C° 0 mm 3 mps 610 mmHg 35%
    13:00 +28°C° 0 mm 3 mps 609 mmHg 34%
    14:00 +27°C° 0 mm 2 mps 608 mmHg 39%
    15:00 +25°C° 0 mm 2 mps 607 mmHg 44%
    16:00 +24°C° 0 mm 1 mps 606 mmHg 48%
    17:00 +22°C° 0.1 mm 1 mps 606 mmHg 53%
    18:00 +21°C° 0.1 mm 1 mps 607 mmHg 57%
    19:00 +20°C° 0.1 mm 1 mps 607 mmHg 62%
    20:00 +19°C° 0.2 mm 1 mps 607 mmHg 67%
    21:00 +18°C° 0.2 mm 1 mps 608 mmHg 72%
    22:00 +16°C° 0.2 mm 2 mps 608 mmHg 77%
    23:00 +16°C° 0.6 mm 1 mps 608 mmHg 79%

    26 November, Tuesday

    Time Temperature Precipitation Wind Pressure Humidity
    00:00 +16°C° 0.6 mm 1 mps 607 mmHg 81%
    01:00 +16°C° 0.6 mm 1 mps 607 mmHg 83%
    02:00 +16°C° 0.2 mm 1 mps 607 mmHg 82%
    03:00 +16°C° 0.2 mm 1 mps 607 mmHg 81%
    04:00 +16°C° 0.2 mm 1 mps 606 mmHg 80%
    05:00 +18°C° 0.1 mm 1 mps 607 mmHg 78%
    06:00 +19°C° 0.1 mm 1 mps 608 mmHg 75%
    07:00 +20°C° 0.1 mm 1 mps 608 mmHg 72%
    08:00 +20°C° 0.3 mm 2 mps 609 mmHg 69%
    09:00 +21°C° 0.3 mm 2 mps 609 mmHg 66%
    10:00 +23°C° 0.3 mm 2 mps 610 mmHg 63%
    11:00 +23°C° 1.1 mm 2 mps 609 mmHg 61%
    12:00 +24°C° 1.1 mm 3 mps 609 mmHg 59%
    13:00 +24°C° 1.1 mm 3 mps 609 mmHg 58%
    14:00 +22°C° 1.6 mm 3 mps 608 mmHg 65%
    15:00 +21°C° 1.6 mm 3 mps 607 mmHg 71%
    16:00 +19°C° 1.6 mm 2 mps 606 mmHg 78%
    17:00 +19°C° 0.2 mm 2 mps 606 mmHg 79%
    18:00 +20°C° 0.2 mm 1 mps 607 mmHg 81%
    19:00 +17°C° 0.2 mm 0 mps 607 mmHg 82%
    20:00 +17°C° 0 mm 0 mps 607 mmHg 83%
    21:00 +16°C° 0 mm 0 mps 607 mmHg 85%
    22:00 +16°C° 0 mm 0 mps 608 mmHg 87%
    23:00 +15°C° 0 mm 0 mps 607 mmHg 89%
    Show more